Temperature
28 25 24 25 25 26 26 26 26 27 28 27 25 25 25 25 25 24 23 23 23 23 23 23 23 22 22 22 21 21 21 21 20 20 20 20 20 20 19 19 19 19 19 19
25 25 26 27 27 27 27 26 26 27 28 27 25 24 24 24 24 24 23 23 23 22 22 22 22 22 22 22 22 21 21 21 20 20 20 20 20 19 19 19 19 19 19 19
25 26 28 28 28 27 27 26 27 27 27 26 25 24 23 24 24 24 23 23 23 22 22 22 22 22 22 22 22 21 21 21 21 20 20 20 20 19 19 19 19 19 19 19
26 27 28 28 27 27 26 28 28 27 25 24 25 22 23 23 23 23 23 23 23 22 22 22 22 22 22 22 22 21 21 21 21 20 20 20 20 19 19 19 19 19 19 19
26 28 28 28 28 29 27 28 28 27 25 24 23 22 22 22 22 22 22 23 23 23 22 22 22 22 22 22 22 21 21 21 20 20 20 20 20 19 19 19 19 19 19 19
26 28 28 28 29 29 29 28 26 23 22 23 23 23 22 21 22 22 22 23 23 23 22 22 22 22 22 22 21 21 21 21 20 20 20 20 19 19 19 19 19 19 19 19
26 27 28 29 28 28 27 24 23 23 21 22 22 23 22 22 23 23 22 22 23 23 22 22 22 21 22 21 21 21 21 20 20 20 20 20 19 19 19 19 19 19 19 19
25 25 27 29 28 27 27 24 23 23 22 22 22 22 22 23 23 23 22 22 22 22 22 22 22 22 21 21 21 21 20 20 20 20 20 19 19 19 19 19 19 19 19 19
24 25 27 29 29 28 27 25 23 22 22 22 22 22 23 23 22 22 22 21 21 22 22 22 22 22 21 21 21 21 21 20 20 20 20 19 19 19 19 19 19 19 18 18
25 25 26 28 29 28 27 25 22 22 22 22 22 22 21 22 22 21 21 21 21 21 21 21 21 21 21 21 21 21 21 20 20 20 19 19 19 19 18 18 18 18 18 18
24 24 25 26 27 27 27 26 22 20 20 21 22 22 23 22 21 21 21 21 21 21 21 21 21 21 21 21 20 20 20 20 19 19 19 19 19 19 18 18 18 18 18 18
24 21 23 24 26 27 27 26 22 22 22 20 20 21 23 22 21 21 21 21 21 21 21 21 21 20 20 20 20 20 20 19 19 19 19 18 18 18 18 18 18 18 18 18
24 21 22 23 24 25 26 26 23 21 20 20 20 21 22 21 21 21 21 21 21 21 21 21 20 20 20 20 20 19 19 19 19 19 18 18 18 18 18 18 18 18 17 17
24 21 22 23 23 24 25 26 25 22 21 21 21 21 21 21 20 20 21 21 21 20 20 20 20 20 20 20 19 19 19 19 18 18 18 18 18 18 18 17 17 17 17 17
22 22 23 23 24 25 26 26 26 24 22 21 21 21 21 20 20 21 21 21 20 20 20 20 20 20 20 19 19 19 19 18 18 18 18 18 17 17 17 17 17 17 17 17
20 22 23 23 25 25 25 25 25 25 24 22 22 21 21 21 21 21 21 20 20 20 20 20 20 20 20 19 19 19 18 18 18 18 18 17 17 17 17 17 17 17 16 16
20 21 21 21 23 24 23 24 24 23 22 22 21 21 20 20 20 20 20 20 20 20 20 20 20 20 19 19 19 19 18 18 18 18 17 17 17 17 16 16 16 16 16 16
20 19 18 20 22 22 22 23 24 22 22 21 21 20 20 20 20 20 21 20 20 20 20 20 19 19 19 19 19 18 18 18 17 17 17 17 17 16 16 16 16 16 15 15
19 19 18 18 20 21 22 23 23 21 20 21 20 20 20 20 20 19 20 20 20 20 20 19 19 19 19 18 18 18 18 17 17 17 17 17 16 16 16 16 16 15 15 15
18 18 18 18 20 21 21 22 23 21 19 20 20 19 19 20 17 18 20 20 20 20 19 19 19 19 18 18 18 18 17 17 17 17 17 16 16 16 16 16 16 15 15 15
19 18 18 18 19 19 20 22 22 20 19 20 20 20 20 19 19 19 19 19 19 19 19 19 19 18 18 18 17 17 17 17 16 16 16 16 16 16 15 15 15 15 15 15
18 17 17 17 18 19 20 21 20 19 20 20 20 20 20 19 19 19 19 19 18 18 18 18 18 18 18 17 17 17 16 16 16 16 16 16 16 15 15 15 15 14 14 14
17 17 16 17 17 18 20 20 21 21 21 20 20 20 20 19 19 19 18 18 18 18 18 18 17 17 17 17 16 16 16 16 16 16 15 15 15 15 15 14 14 14 14 14
17 17 16 16 17 18 19 20 20 21 21 20 20 20 20 19 18 18 18 17 17 17 17 17 17 16 16 16 16 16 16 16 15 15 15 15 15 14 14 14 14 14 13 13
17 17 16 16 17 17 18 19 19 19 20 20 20 19 19 19 18 18 17 17 17 17 16 16 16 16 15 15 15 15 15 15 15 15 15 14 14 14 14 14 14 13 13 13
16 16 15 15 16 16 17 18 19 19 18 19 19 18 18 18 18 17 17 16 16 16 16 15 15 15 15 15 14 14 14 14 14 14 14 14 14 14 13 13 13 13 13 13
Wind_Speed
2 2 4 7 7 6 5 3 4 4 3 4 5 5 5 4 6 9 9 9 9 8 7 7 8 9 9 7 7 6 6 4 4 3 3 2 2 1 1 1 2 3 3 3
4 5 10 7 5 4 4 2 3 2 3 4 6 4 4 5 6 8 9 9 9 7 6 7 7 8 8 8 7 7 6 5 4 3 2 2 2 1 1 1 2 2 3 3
7 9 6 5 5 4 4 4 5 3 1 3 6 2 0 3 4 7 9 8 9 11 10 9 8 7 7 7 7 7 6 6 5 4 3 3 3 2 2 1 1 1 2 3
6 7 5 4 6 5 5 6 5 4 2 1 3 2 4 4 4 6 8 8 9 10 9 8 8 7 8 7 7 6 6 6 5 5 4 4 3 2 1 1 1 0 1 2
6 4 4 6 7 6 7 6 3 3 3 2 2 3 4 2 4 6 7 10 10 9 10 9 9 9 7 7 6 6 5 5 5 5 5 4 3 2 1 1 1 1 1 1
8 5 4 6 5 4 3 3 5 6 5 2 3 3 4 4 7 6 6 8 8 9 9 9 8 7 6 6 5 6 6 5 5 5 4 5 4 3 3 2 1 0 1 0
6 6 4 3 2 4 4 6 4 5 4 4 3 2 5 4 6 8 9 7 7 7 8 8 8 7 7 6 5 5 6 5 4 5 4 4 4 4 4 3 2 1 0 0
3 6 5 3 5 5 3 9 7 4 4 3 3 1 4 2 5 7 7 6 7 7 7 9 9 9 8 7 6 6 6 4 4 4 4 4 4 3 2 2 2 2 1 1
6 6 6 4 3 5 2 3 8 7 2 1 2 2 3 3 6 7 7 6 6 6 7 7 8 8 7 7 6 7 6 5 4 5 4 4 3 3 2 2 2 1 1 1
7 4 6 4 3 2 5 6 6 5 4 1 2 3 5 5 6 7 8 6 6 5 6 6 6 6 6 6 5 5 6 5 4 4 4 3 3 3 3 2 2 2 1 1
5 4 5 3 1 3 1 2 5 5 6 6 3 5 6 11 10 10 10 9 8 8 6 6 6 5 6 6 5 4 4 3 3 3 3 3 3 3 3 3 2 2 1 1
3 5 3 6 6 4 3 3 6 5 3 5 4 5 2 9 9 9 9 8 8 8 6 6 6 5 5 5 5 5 4 4 3 3 3 3 2 2 2 2 2 2 2 1
4 6 1 6 7 5 1 0 3 5 5 4 4 4 1 6 7 7 7 7 8 8 7 6 5 5 5 5 5 4 4 4 4 4 3 2 2 2 3 3 2 2 2 1
5 5 6 8 7 4 3 3 1 5 3 3 5 5 3 6 7 6 7 7 7 8 9 8 6 5 5 5 5 5 4 4 4 3 3 3 3 3 3 2 2 3 3 2
5 3 3 5 5 2 1 3 1 3 5 6 7 8 9 9 9 8 8 8 8 7 8 8 8 6 5 5 5 4 4 4 4 4 3 3 3 3 3 2 2 2 3 3
4 3 2 2 1 2 2 3 0 1 3 6 7 4 5 7 6 7 8 9 9 8 8 7 7 6 5 5 5 4 4 4 4 4 3 2 2 2 3 2 2 2 2 2
2 4 2 3 4 3 2 3 1 2 2 6 6 5 6 6 7 8 8 7 7 7 7 6 6 6 5 6 5 5 5 4 4 4 3 3 3 2 2 3 2 2 2 2
5 4 3 1 3 2 6 2 6 7 4 4 5 7 9 8 6 5 6 7 6 6 6 5 4 4 3 4 4 4 4 4 4 4 3 3 3 3 2 2 2 2 2 2
7 7 4 3 2 3 3 2 2 6 2 1 6 7 7 7 6 4 2 5 6 5 5 5 5 4 3 3 4 5 4 3 3 3 3 3 3 3 3 2 2 2 2 2
5 6 6 4 3 4 5 5 2 8 1 2 5 6 5 5 4 3 3 4 4 4 4 4 5 4 3 2 4 5 4 3 3 3 3 2 3 3 3 3 3 2 2 2
4 4 4 3 3 4 5 4 2 4 6 4 5 6 6 5 6 6 6 5 5 5 4 5 5 4 3 3 4 3 2 3 3 3 2 2 2 3 3 3 2 2 1 1
3 2 2 3 3 5 4 2 3 6 4 3 4 5 6 5 5 5 6 5 5 4 4 4 4 3 2 3 4 3 2 3 2 3 2 2 2 2 2 2 2 2 2 1
2 4 4 5 5 5 2 2 3 5 5 3 3 4 6 7 6 5 5 5 4 5 4 3 4 3 1 1 3 3 3 2 2 2 2 2 2 1 2 2 2 1 1 1
3 1 3 2 0 1 2 4 3 4 5 3 5 5 7 7 7 6 5 4 4 4 3 3 4 3 1 0 1 2 2 2 2 2 2 2 2 1 1 1 2 2 2 2
2 2 2 2 1 3 4 3 3 4 5 7 6 6 7 9 7 6 4 4 3 3 3 3 3 3 1 1 1 1 1 1 1 1 1 1 1 2 1 1 2 3 3 4
2 2 4 4 5 3 2 1 3 6 5 5 8 7 6 7 7 6 5 4 4 4 3 3 2 2 1 1 1 2 1 0 2 1 1 1 1 1 1 1 2 3 3 4
Wind_Direction
302 86 232 232 214 208 217 242 272 252 191 115 113 113 135 149 141 148 150 152 157 162 159 150 148 146 138 134 130 129 128 131 121 110 104 96 94 88 81 87 108 119 120 120
354 262 234 226 239 236 244 224 268 300 163 134 119 119 144 150 164 156 153 158 161 156 150 146 147 150 148 149 147 143 145 143 141 140 140 136 133 127 139 110 93 125 130 134
226 243 238 221 227 245 261 217 223 210 10 89 106 44 202 174 148 144 154 163 160 165 164 160 156 155 150 154 159 157 156 149 148 139 114 92 68 45 45 50 54 50 111 113
251 247 234 227 223 190 254 245 211 194 129 220 140 175 260 198 159 167 169 166 164 164 158 156 154 157 163 165 159 149 151 148 150 139 132 133 134 143 190 178 156 343 86 114
255 243 219 240 238 202 224 231 207 184 133 60 31 127 267 183 173 192 181 172 168 163 161 167 167 164 159 156 149 143 140 140 142 140 144 140 135 152 146 112 100 70 44 90
252 258 215 225 256 226 192 67 43 53 69 13 256 154 237 203 195 180 170 169 162 161 164 166 163 152 147 142 142 144 142 145 148 146 145 146 145 143 128 128 135 73 29 39
300 294 267 230 292 314 89 89 38 8 14 261 271 139 235 219 175 163 163 167 164 157 156 155 152 149 152 150 153 149 146 152 158 154 153 153 153 151 158 171 174 168 151 210
237 285 266 233 199 208 189 136 155 192 210 272 334 226 264 191 133 133 143 155 143 143 157 159 159 162 162 160 159 154 154 154 162 165 168 158 152 156 168 176 172 176 187 199
190 251 277 254 225 162 169 170 165 140 132 96 296 306 332 92 108 121 128 133 138 143 148 154 154 153 157 159 163 163 160 162 166 172 169 160 154 152 167 176 170 171 184 178
165 229 279 292 14 1 164 158 95 114 140 199 255 225 211 179 153 144 146 149 149 144 136 128 133 145 156 163 160 153 161 169 161 155 168 166 161 165 174 159 164 175 191 192
141 156 298 355 203 231 37 81 106 119 145 153 210 256 212 175 167 163 165 166 152 143 138 134 134 145 156 150 145 142 140 135 141 148 149 161 165 168 158 158 185 182 172 130
144 134 238 261 262 211 160 157 138 146 208 159 162 260 254 165 159 158 163 157 151 149 147 137 126 124 139 141 141 146 150 143 148 145 137 165 170 160 157 164 184 161 139 143
131 116 72 336 339 352 19 123 125 134 125 146 157 242 202 141 146 155 157 156 159 148 142 134 127 133 147 145 144 145 146 146 139 133 129 150 175 168 169 173 167 147 135 129
123 119 159 195 224 244 281 280 135 112 139 178 191 186 173 160 154 156 159 158 156 153 150 149 153 158 159 154 158 155 149 145 141 138 143 170 186 187 187 176 162 154 146 152
98 129 185 217 228 203 273 268 210 148 174 168 187 173 188 180 171 168 161 155 146 153 154 159 165 167 162 159 162 163 158 160 157 150 152 182 186 184 179 165 170 169 163 169
79 109 66 331 328 68 19 320 207 142 123 134 140 179 193 169 143 145 152 156 155 164 166 165 166 167 164 166 167 167 169 174 161 152 159 167 159 175 186 186 176 166 170 165
87 106 82 278 292 45 346 279 168 108 113 138 163 195 150 135 148 159 155 151 156 162 164 166 174 177 182 185 178 175 179 170 163 164 169 169 170 169 190 190 169 184 193 179
135 110 130 173 46 201 238 241 115 103 71 95 134 146 146 150 148 148 141 137 144 151 156 165 167 166 177 167 159 158 155 158 165 171 179 181 176 172 170 168 183 202 204 197
145 138 125 124 151 256 288 304 149 120 54 94 136 139 142 127 85 53 117 136 152 157 154 161 162 151 152 159 152 140 140 153 159 170 189 191 181 180 179 181 196 197 190 208
73 108 123 129 150 213 246 279 188 108 90 271 146 147 153 128 127 223 208 151 140 131 130 136 137 127 141 168 152 142 154 159 181 192 191 191 187 185 191 201 204 199 191 209
39 49 116 154 184 245 266 288 69 138 212 222 160 154 155 164 181 187 164 153 147 137 130 131 131 134 155 159 141 143 157 194 209 189 174 171 172 181 191 199 203 198 190 178
152 137 161 139 167 245 290 38 147 196 194 156 145 154 149 142 129 128 137 137 125 117 116 124 129 136 151 139 131 147 200 220 196 175 168 172 178 184 182 181 198 182 161 159
124 176 176 175 203 239 285 144 165 149 130 134 141 159 142 133 128 127 138 137 127 122 120 116 118 111 95 129 145 171 224 213 179 168 178 184 184 185 167 170 181 176 168 176
328 56 99 82 49 11 52 67 76 105 111 121 134 137 135 133 137 137 140 137 131 128 126 119 112 104 81 32 167 211 230 208 163 174 202 201 181 185 169 174 176 183 197 205
279 33 74 104 182 42 23 44 74 70 84 93 101 113 133 133 132 134 138 140 138 129 126 127 126 122 115 33 11 316 283 131 136 163 201 214 194 180 180 201 218 213 217 209
298 172 158 205 220 159 237 282 87 86 79 96 100 94 102 123 132 130 134 138 135 131 126 116 112 114 105 67 7 340 334 78 143 155 224 232 215 206 205 218 306 306 268 252
Height
1493 1500 1505 1501 1499 1500 1502 1507 1508 1501 1493 1497 1503 1506 1506 1506 1508 1508 1510 1512 1514 1515 1517 1518 1520 1521 1522 1523 1524 1524 1525 1526 1527 1527 1528 1528 1529 1529 1529 1529 1529 1529 1529 1529
1499 1502 1493 1491 1492 1495 1499 1506 1505 1499 1493 1498 1505 1508 1506 1507 1507 1508 1509 1511 1513 1515 1517 1518 1520 1521 1522 1522 1523 1524 1525 1526 1527 1528 1529 1529 1530 1530 1530 1530 1530 1530 1529 1529
1501 1494 1487 1489 1493 1497 1499 1503 1502 1501 1497 1498 1506 1516 1512 1508 1508 1508 1509 1511 1512 1513 1515 1517 1519 1520 1521 1522 1523 1524 1525 1526 1528 1528 1529 1530 1530 1530 1530 1530 1530 1530 1530 1529
1493 1485 1486 1489 1492 1494 1503 1491 1491 1496 1507 1516 1510 1532 1518 1510 1509 1508 1509 1510 1511 1513 1515 1517 1518 1519 1521 1522 1523 1524 1525 1526 1528 1528 1529 1529 1530 1530 1530 1530 1530 1530 1530 1530
1492 1484 1486 1489 1486 1486 1490 1483 1487 1493 1505 1516 1515 1527 1523 1512 1513 1511 1509 1509 1510 1512 1514 1515 1516 1517 1519 1521 1523 1524 1525 1526 1527 1528 1529 1529 1530 1530 1530 1531 1530 1530 1530 1530
1484 1479 1481 1481 1478 1478 1480 1486 1493 1502 1514 1530 1520 1525 1526 1516 1510 1508 1507 1508 1509 1512 1513 1514 1516 1518 1519 1521 1522 1523 1524 1525 1526 1527 1528 1529 1529 1529 1530 1530 1530 1529 1529 1529
1490 1482 1477 1475 1481 1480 1484 1505 1526 1531 1539 1534 1517 1520 1520 1505 1502 1502 1505 1507 1508 1510 1512 1514 1516 1517 1518 1520 1521 1522 1523 1524 1525 1526 1527 1527 1528 1528 1529 1529 1529 1529 1528 1528
1503 1501 1480 1474 1479 1485 1486 1499 1527 1539 1542 1534 1520 1523 1512 1500 1500 1501 1503 1506 1508 1509 1511 1512 1514 1515 1517 1518 1520 1521 1522 1523 1524 1525 1525 1526 1527 1527 1528 1528 1528 1528 1527 1527
1500 1498 1476 1471 1470 1475 1485 1494 1498 1518 1526 1535 1529 1518 1507 1499 1500 1502 1505 1506 1508 1509 1510 1511 1513 1514 1516 1517 1518 1520 1520 1521 1522 1523 1525 1525 1525 1526 1526 1527 1527 1526 1526 1526
1483 1493 1480 1472 1470 1471 1477 1485 1503 1518 1534 1541 1531 1524 1520 1508 1504 1503 1504 1507 1507 1509 1510 1511 1512 1513 1515 1517 1518 1519 1520 1520 1521 1522 1523 1524 1523 1524 1525 1525 1525 1525 1525 1525
1477 1492 1488 1480 1481 1483 1482 1488 1499 1513 1519 1535 1539 1528 1499 1499 1499 1500 1502 1503 1505 1508 1509 1510 1512 1513 1515 1516 1517 1518 1519 1520 1520 1521 1522 1523 1523 1523 1523 1523 1523 1524 1523 1523
1476 1491 1499 1488 1475 1471 1476 1483 1496 1512 1518 1521 1529 1524 1491 1493 1495 1497 1500 1502 1505 1506 1508 1509 1511 1512 1514 1515 1515 1516 1517 1518 1519 1519 1520 1521 1521 1521 1521 1521 1522 1522 1521 1521
1474 1491 1507 1503 1494 1481 1480 1480 1486 1497 1510 1520 1527 1519 1494 1493 1495 1497 1499 1501 1503 1505 1507 1508 1510 1511 1512 1513 1514 1515 1516 1517 1517 1518 1518 1518 1519 1519 1519 1519 1520 1520 1520 1520
1468 1488 1500 1507 1501 1489 1485 1481 1481 1493 1510 1514 1511 1507 1499 1497 1496 1497 1499 1501 1502 1504 1505 1507 1508 1510 1511 1512 1513 1514 1515 1516 1516 1516 1516 1517 1516 1516 1517 1517 1517 1517 1517 1517
1470 1486 1485 1484 1479 1478 1480 1479 1479 1486 1492 1502 1501 1500 1497 1494 1494 1495 1497 1499 1501 1503 1504 1505 1506 1507 1509 1510 1512 1513 1513 1514 1514 1515 1515 1514 1515 1515 1515 1515 1514 1514 1514 1514
1472 1483 1483 1484 1477 1477 1481 1478 1478 1481 1484 1489 1493 1497 1490 1491 1492 1495 1496 1498 1500 1502 1503 1503 1505 1506 1507 1509 1510 1511 1512 1512 1513 1513 1512 1513 1513 1513 1513 1512 1512 1512 1512 1512
1477 1483 1492 1495 1483 1482 1493 1484 1480 1483 1483 1486 1494 1492 1489 1492 1492 1493 1494 1496 1498 1501 1502 1503 1503 1504 1506 1508 1508 1509 1509 1510 1510 1510 1510 1511 1511 1511 1510 1510 1510 1509 1509 1509
1477 1485 1495 1498 1494 1507 1494 1477 1476 1481 1484 1482 1483 1485 1486 1488 1491 1492 1493 1495 1497 1499 1501 1502 1503 1503 1504 1505 1506 1507 1508 1508 1508 1508 1508 1508 1508 1508 1509 1508 1508 1507 1506 1506
1468 1481 1494 1503 1506 1501 1486 1477 1477 1483 1490 1483 1483 1485 1487 1488 1490 1493 1494 1494 1495 1497 1499 1500 1502 1502 1502 1503 1503 1504 1505 1505 1505 1505 1506 1506 1506 1506 1506 1506 1505 1505 1504 1503
1469 1475 1490 1498 1502 1505 1490 1476 1474 1480 1494 1484 1482 1484 1485 1487 1495 1496 1494 1494 1495 1496 1497 1499 1500 1500 1500 1500 1501 1502 1502 1502 1502 1502 1503 1503 1503 1503 1503 1503 1502 1502 1501 1501
1482 1485 1491 1496 1500 1495 1480 1474 1473 1492 1493 1483 1481 1481 1483 1484 1487 1490 1491 1493 1494 1495 1496 1497 1498 1498 1498 1499 1499 1499 1499 1499 1499 1499 1499 1499 1499 1500 1500 1500 1499 1499 1498 1498
1486 1491 1493 1496 1501 1497 1476 1474 1479 1482 1478 1479 1479 1480 1481 1482 1485 1487 1489 1491 1493 1494 1495 1496 1496 1496 1496 1497 1497 1496 1496 1496 1496 1496 1496 1496 1495 1496 1496 1496 1496 1496 1496 1495
1481 1483 1486 1488 1490 1480 1475 1474 1475 1475 1476 1478 1479 1480 1480 1482 1484 1486 1488 1490 1491 1492 1493 1494 1494 1494 1494 1495 1495 1494 1494 1494 1494 1493 1493 1492 1492 1492 1492 1493 1493 1493 1493 1492
1478 1476 1480 1483 1480 1478 1476 1475 1475 1475 1476 1477 1478 1478 1479 1481 1483 1485 1487 1489 1490 1491 1492 1492 1492 1492 1492 1492 1492 1492 1491 1490 1490 1490 1490 1490 1489 1489 1490 1490 1490 1490 1490 1489
1480 1478 1481 1483 1481 1479 1477 1476 1476 1476 1476 1476 1477 1478 1479 1481 1483 1484 1486 1487 1489 1490 1490 1490 1490 1489 1489 1489 1489 1489 1488 1487 1487 1487 1487 1487 1487 1487 1487 1487 1487 1487 1487 1487
1479 1479 1482 1483 1478 1479 1479 1478 1477 1475 1476 1476 1477 1478 1480 1481 1482 1483 1485 1486 1488 1488 1488 1488 1488 1487 1487 1487 1486 1486 1486 1485 1485 1485 1485 1485 1484 1484 1484 1484 1483 1483 1484 1483